AirNav   Phillips 66 Aviation Fuel
 
 347 users online  

63Y Tyler Municipal Airport
Tyler, Minnesota, USA

GOING TO TYLER?


FAA INFORMATION EFFECTIVE 13 SEPTEMBER 2018

Location

FAA Identifier: 63Y
Lat/Long: 44-17-29.8780N / 096-09-01.1210W
44-17.497967N / 096-09.018683W
44.2916328 / -96.1503114
(estimated)
Elevation: 1742 ft. / 531 m (estimated)
Variation: 06E (1985)
From city: 1 mile NW of TYLER, MN
Time zone: UTC -5 (UTC -6 during Standard Time)
Zip code: 56178

Airport Operations

Airport use: Open to the public
Activation date: 12/1947
Control tower: no
ARTCC: MINNEAPOLIS CENTER
FSS: PRINCETON FLIGHT SERVICE STATION
NOTAMs facility: PNM (NOTAM-D service available)
Attendance: UNATNDD
Wind indicator: lighted
Segmented circle: no
Lights: SS-SR
Beacon: white-green (lighted land airport)
Operates sunset to sunrise.

Airport Communications

CTAF: 122.9
WX AWOS-3PT at MML (17 nm NE): 111.0 (507-532-5269)
WX AWOS-3 at PQN (20 nm S): 118.375 (507-825-6895)

Nearby radio navigation aids

VOR radial/distance  VOR name  Freq  Var
MMLr231/16.8MARSHALL VOR/DME111.0005E

Airport Services

Parking: tiedowns
Airframe service: NONE
Powerplant service: NONE
Bottled oxygen: NONE
Bulk oxygen: NONE

Runway Information

Runway 14/32

Dimensions: 2600 x 160 ft. / 792 x 49 m
Surface: turf, in fair condition
RY 14/32 SOME BARE SPOTS AND DEPRESSIONS, ANIMAL HOLES
Runway edge lights: low intensity
Runway edge markings: RY 14/32 MKD WITH YELLOW CONES.
RUNWAY 14  RUNWAY 32
Latitude: 44-17.484167N44-17.128333N
Longitude: 096-09.221000W096-08.933000W
Elevation: 1742.0 ft.1742.0 ft.
Traffic pattern: leftleft
Markings: nonenone
Runway end identifier lights: nono

Airport Ownership and Management from official FAA records

Ownership: Publicly-owned
Owner: CITY OF TYLER
230 N TYLER ST
TYLER, MN 56178
Phone 507-247-5556
Manager: ROBERT WOLFINGTON III
CITY OF TYLER, 230 N TYLER ST.
TYLER, MN 56178
Phone 507-247-5556

Airport Operational Statistics

Aircraft based on the field: 4
Single engine airplanes: 4
    
Aircraft operations: avg 42/week *
73% local general aviation
27% transient general aviation
* for 12-month period ending 30 April 2016

Additional Remarks

CFM SNOW REMOVAL & WINTER CONDS WITH AMGR FM 0800-1700 LCL, CALL 504-247-5556.

Instrument Procedures

There are no published instrument procedures at 63Y.

Some nearby airports with instrument procedures:

KMML - Southwest Minnesota Regional Airport - Marshall/Ryan Field (17 nm NE)
KPQN - Pipestone Municipal Airport (20 nm S)
KTKC - Tracy Municipal Airport (23 nm E)
KDVP - Slayton Municipal Airport (24 nm SE)
KCNB - Myers Field Airport (27 nm N)
 
Loc | Ops | Rwys | IFR | FBO | Links
Com | Nav | Svcs | Stats | Notes


 
Area around 63Y (Tyler Municipal Airport)
 
Road maps at: MapQuest Bing Google
 
Aerial photo
WARNING: Photo may not be current or correct
Aerial photo of 63Y (Tyler Municipal Airport)
Photo by Thomas W. Young
Photo taken 27-Aug-2005
view to the north

Do you have a better or more recent aerial photo of Tyler Municipal Airport that you would like to share? If so, please send us your photo.

 
Sectional chart

 
Airport distance calculator
Flying to Tyler Municipal Airport? Find the distance to fly.

From to 63Y

Sunrise and sunset
Times for 24-Sep-2018
 Local
(UTC-5)
 Zulu
(UTC)
Morning civil twilight06:4611:46
Sunrise07:1512:15
Sunset19:1800:18
Evening civil twilight19:4700:47

Current date and time
Zulu (UTC)  24-Sep-2018 10:03:12
Local (UTC-5)  24-Sep-2018 05:03:12
 
METAR
KMML 
17nm NE 
240956Z AUTO 17014KT 10SM CLR 17/12 A2984 RMK AO2 SLP099 T01720117
KPQN 
21nm S 
240955Z AUTO 19010KT 10SM CLR 14/12 A2984 RMK AO2 LTG DSNT N
KTKC 
23nm E 
240859Z AUTO 15005KT 10SM CLR 16/12 A2986 RMK AO2
KDVP 
24nm SE 
240859Z AUTO 18014G20KT 10SM CLR 16/11 A2987 RMK AO2
4P3 
26nm SW 
SuperAWOS
240615Z AUTO 10SM A2988
KCNB 
27nm N 
240955Z AUTO 16008KT 120V180 10SM CLR 19/14 A2980 RMK AO2 LTG DSNT N T01940142
KBKX 
29nm W 
240956Z AUTO 17011KT 10SM CLR 15/13 A2981 RMK AO2 SLP101 T01500128
TAF
KRWF 
48nm E 
240520Z 2406/2506 15014KT P6SM BKN200 FM241500 20016G25KT P6SM SCT020 OVC035 FM242000 24011KT P6SM VCSH OVC020 FM242200 30007KT 5SM -RA OVC015 FM250100 33006KT P6SM OVC015
KFSD 
50nm SW 
240636Z 2407/2506 18014KT P6SM SCT150 WS010/20045KT FM241100 17010KT P6SM SCT150 FM241600 21012G17KT P6SM BKN025 FM241800 25010KT P6SM OVC025 FM242000 29007KT P6SM VCSH OVC030 FM250000 34007KT P6SM BKN050
NOTAMs
Click for the latest NOTAMs
NOTAMs are issued by the DoD/FAA and will open in a separate window not controlled by AirNav.

 

 
 

Would you like to see your business listed on this page?

 If your business provides an interesting product or service to pilots, flight crews, aircraft, or users of the Tyler Municipal Airport, you should consider listing it here.  To start the listing process, click on the button below
 
Add a business
 

Other Pages about Tyler Municipal Airport

Update a link
 
Copyright © AirNav, LLC. All rights reserved. Privacy Policy  Contact